Weather History for Little Falls, MN

Change the Weather History Date:

Monday, March 18, 2013

  Actual Average Record
Temperature  
Mean Temperature 20 °F -  
Max Temperature 30 °F 40 °F 73 °F (2012)
Min Temperature 10 °F 19 °F -16 °F (1939)
Degree Days  
Heating Degree Days 45    
Moisture  
Dew Point 14 °F    
Average Humidity 77    
Maximum Humidity 93    
Minimum Humidity 63    
Precipitation  
Precipitation 0.00 in - - ()
Sea Level Pressure  
Sea Level Pressure 29.63 in    
Wind  
Wind Speed 15 mph (WSW)    
Max Wind Speed 25 mph    
Max Gust Speed 39 mph    
Visibility 6 miles    
Events Snow    
Averages and records for this station are not official NWS values.
T = Trace of Precipitation, MM = Missing Value Source: NWS Daily Summary

Daily Weather History Graph

Daily Weather History Graph

Search for Another Location

Airport:

Trip Planner

Search our weather history database for the weather conditions in past years. The results will help you decide how hot, cold, wet, or windy it might be!

Date:

Astronomy

Mar. 18, 2013 Rise Set
Actual Time 7:23 AM CDT 7:27 PM CDT
Civil Twilight 6:54 AM CDT 7:57 PM CDT
Nautical Twilight 6:19 AM CDT 8:32 PM CDT
Astronomical Twilight 5:43 AM CDT 9:08 PM CDT
Moon 11:05 AM CDT (3/18) 1:45 AM CDT (3/18)
Length of Visible Light 13h 03m
Length of Day
12h 03m
Waxing Crescent, 41% of the Moon is Illuminated
Mar 18
Waxing Crescent
Mar 19
First Quarter
Mar 27
Full
Apr 2
Last Quarter
Apr 10
New

Hourly Weather History & Observations

Time (CDT) Temp. Windchill Dew Point Humidity Pressure Visibility Wind Dir Wind Speed Gust Speed Precip Events Conditions
12:16 AM 21.2 °F 7.8 °F 17.6 °F 86% 29.74 in 1.5 mi ESE 15.0 mph 21.9 mph N/A Snow Light Snow
12:35 AM 21.2 °F 7.8 °F 17.6 °F 86% 29.72 in 1.0 mi ESE 15.0 mph 28.8 mph N/A Snow Snow
12:55 AM 21.2 °F 8.3 °F 19.4 °F 93% 29.70 in 1.2 mi ESE 13.8 mph 23.0 mph N/A Snow Light Snow
1:15 AM 21.2 °F 7.8 °F 19.4 °F 93% 29.68 in 1.0 mi ESE 15.0 mph 24.2 mph N/A Snow Snow
1:35 AM 23.0 °F 10.6 °F 19.4 °F 86% 29.68 in 0.8 mi SE 13.8 mph - N/A Snow Snow
1:56 AM 23.0 °F 12.4 °F 19.4 °F 86% 29.68 in 0.8 mi SE 10.4 mph 16.1 mph N/A Snow Snow
2:15 AM 23.0 °F 11.1 °F 21.2 °F 93% 29.68 in 0.5 mi SE 12.7 mph 19.6 mph N/A Snow Heavy Snow
2:35 AM 24.8 °F 14.0 °F 21.2 °F 86% 29.67 in 0.5 mi SE 11.5 mph - N/A Snow Heavy Snow
2:56 AM 24.8 °F 12.9 °F 23.0 °F 93% 29.66 in 0.8 mi SE 13.8 mph 18.4 mph N/A Snow Snow
3:15 AM 26.6 °F 15.7 °F 23.0 °F 86% 29.65 in 1.5 mi SE 12.7 mph 18.4 mph N/A Snow Light Snow
3:35 AM 26.6 °F 14.7 °F 23.0 °F 86% 29.64 in 0.8 mi SE 15.0 mph 20.7 mph N/A Snow Snow
3:56 AM 26.6 °F 15.7 °F 23.0 °F 86% 29.62 in 1.8 mi SE 12.7 mph - N/A Snow Light Snow
4:15 AM 26.6 °F 14.3 °F 23.0 °F 86% 29.61 in 1.8 mi SE 16.1 mph 20.7 mph N/A   Overcast
4:35 AM 26.6 °F 14.3 °F 23.0 °F 86% 29.60 in 2.5 mi SE 16.1 mph 21.9 mph N/A   Overcast
4:56 AM 28.4 °F 16.6 °F 24.8 °F 86% 29.59 in 3.0 mi SE 16.1 mph 23.0 mph N/A   Overcast
5:15 AM 28.4 °F 17.0 °F 24.8 °F 86% 29.57 in 3.0 mi SE 15.0 mph 20.7 mph N/A   Overcast
5:35 AM 28.4 °F 16.2 °F 24.8 °F 86% 29.56 in 4.0 mi SE 17.3 mph 26.5 mph N/A   Overcast
5:56 AM 28.4 °F 16.6 °F 24.8 °F 86% 29.55 in 3.0 mi SE 16.1 mph 24.2 mph N/A   Overcast
6:15 AM 28.4 °F 16.2 °F 26.6 °F 93% 29.54 in 3.0 mi SE 17.3 mph 24.2 mph N/A Snow Light Snow
6:35 AM 28.4 °F 16.6 °F 26.6 °F 93% 29.53 in 3.0 mi SSE 16.1 mph 25.3 mph N/A Snow Light Snow
6:56 AM 28.4 °F 17.0 °F 26.6 °F 93% 29.52 in 4.0 mi SE 15.0 mph 18.4 mph N/A   Overcast
7:15 AM 28.4 °F 18.5 °F 26.6 °F 93% 29.52 in 3.0 mi SSE 11.5 mph - N/A   Overcast
7:35 AM 30.2 °F 20.2 °F 28.4 °F 93% 29.51 in 3.0 mi South 12.7 mph 21.9 mph N/A   Overcast
7:56 AM 28.4 °F 16.6 °F 26.6 °F 93% 29.52 in 4.0 mi SW 16.1 mph 21.9 mph N/A   Overcast
8:15 AM 26.6 °F 17.5 °F 23.0 °F 86% 29.53 in 4.0 mi SW 9.2 mph 20.7 mph N/A   Overcast
8:35 AM 26.6 °F 15.7 °F 21.2 °F 80% 29.53 in 7.0 mi SW 12.7 mph 19.6 mph N/A   Overcast
8:55 AM 23.0 °F 11.7 °F 19.4 °F 86% 29.54 in 4.0 mi WSW 11.5 mph 26.5 mph N/A   Overcast
9:15 AM 23.0 °F 11.1 °F 17.6 °F 80% 29.54 in 10.0 mi SW 12.7 mph 20.7 mph N/A   Overcast
9:36 AM 21.2 °F 10.9 °F 15.8 °F 80% 29.54 in 10.0 mi SW 9.2 mph 19.6 mph N/A   Mostly Cloudy
9:55 AM 21.2 °F 11.7 °F 15.8 °F 80% 29.55 in 10.0 mi WSW 8.1 mph - N/A   Overcast
10:15 AM 19.4 °F 7.9 °F 14.0 °F 80% 29.55 in 10.0 mi SW 10.4 mph 16.1 mph N/A   Overcast
10:36 AM 19.4 °F 7.2 °F 12.2 °F 74% 29.57 in 7.0 mi WSW 11.5 mph - N/A   Scattered Clouds
10:55 AM 19.4 °F 8.6 °F 10.4 °F 68% 29.57 in 10.0 mi WSW 9.2 mph 17.3 mph N/A   Scattered Clouds
11:15 AM 17.6 °F 4.3 °F 10.4 °F 73% 29.58 in 7.0 mi WSW 12.7 mph 20.7 mph N/A   Scattered Clouds
11:36 AM 17.6 °F 2.2 °F 10.4 °F 73% 29.59 in 5.0 mi West 17.3 mph 24.2 mph N/A   Mostly Cloudy
11:55 AM 17.6 °F 4.3 °F 8.6 °F 68% 29.58 in 10.0 mi West 12.7 mph 20.7 mph N/A   Mostly Cloudy
12:15 PM 17.6 °F 5.0 °F 8.6 °F 68% 29.59 in 10.0 mi West 11.5 mph 17.3 mph N/A   Scattered Clouds
12:36 PM 15.8 °F 3.4 °F 8.6 °F 73% 29.59 in 7.0 mi West 10.4 mph 19.6 mph N/A   Mostly Cloudy
12:55 PM 17.6 °F 3.7 °F 8.6 °F 68% 29.59 in 5.0 mi West 13.8 mph 21.9 mph N/A   Overcast
1:15 PM 17.6 °F 4.3 °F 8.6 °F 68% 29.59 in 7.0 mi West 12.7 mph 19.6 mph N/A   Mostly Cloudy
1:36 PM 17.6 °F 5.7 °F 8.6 °F 68% 29.59 in 7.0 mi West 10.4 mph 23.0 mph N/A   Mostly Cloudy
1:56 PM 17.6 °F 3.2 °F 8.6 °F 68% 29.59 in 7.0 mi West 15.0 mph 24.2 mph N/A   Mostly Cloudy
2:15 PM 19.4 °F 5.5 °F 10.4 °F 68% 29.59 in 7.0 mi West 15.0 mph 20.7 mph N/A Snow Light Snow
2:35 PM 19.4 °F 5.0 °F 8.6 °F 63% 29.59 in 5.0 mi West 16.1 mph 27.6 mph N/A Snow Light Snow
2:55 PM 19.4 °F 4.5 °F 8.6 °F 63% 29.59 in 7.0 mi West 17.3 mph 26.5 mph N/A   Mostly Cloudy
3:15 PM 19.4 °F 4.5 °F 8.6 °F 63% 29.60 in 10.0 mi West 17.3 mph 26.5 mph N/A   Scattered Clouds
3:35 PM 19.4 °F 4.5 °F 10.4 °F 68% 29.60 in 7.0 mi West 17.3 mph 27.6 mph N/A   Scattered Clouds
3:55 PM 19.4 °F 5.0 °F 10.4 °F 68% 29.60 in 7.0 mi West 16.1 mph 32.2 mph N/A   Scattered Clouds
4:15 PM 19.4 °F 3.6 °F 8.6 °F 63% 29.61 in 7.0 mi WNW 19.6 mph 31.1 mph N/A   Mostly Cloudy
4:36 PM 19.4 °F 4.1 °F 8.6 °F 63% 29.62 in 7.0 mi WNW 18.4 mph 28.8 mph N/A   Mostly Cloudy
4:55 PM 19.4 °F 5.5 °F 10.4 °F 68% 29.63 in 10.0 mi West 15.0 mph 26.5 mph N/A   Mostly Cloudy
5:16 PM 19.4 °F 4.1 °F 10.4 °F 68% 29.64 in 5.0 mi WNW 18.4 mph 27.6 mph N/A   Mostly Cloudy
5:35 PM 19.4 °F 3.6 °F 10.4 °F 68% 29.64 in 10.0 mi WNW 19.6 mph 26.5 mph N/A   Mostly Cloudy
5:55 PM 19.4 °F 4.1 °F 10.4 °F 68% 29.65 in 10.0 mi WNW 18.4 mph 25.3 mph N/A   Mostly Cloudy
6:16 PM 17.6 °F 2.7 °F 8.6 °F 68% 29.66 in 5.0 mi WNW 16.1 mph 35.7 mph N/A   Scattered Clouds
6:35 PM 17.6 °F 1.3 °F 8.6 °F 68% 29.67 in 5.0 mi West 19.6 mph 26.5 mph N/A   Mostly Cloudy
6:55 PM 17.6 °F 2.7 °F 8.6 °F 68% 29.68 in 7.0 mi West 16.1 mph 24.2 mph N/A   Mostly Cloudy
7:16 PM 17.6 °F 0.1 °F 8.6 °F 68% 29.69 in 5.0 mi WNW 23.0 mph 34.5 mph N/A   Mostly Cloudy
7:35 PM 15.8 °F -3.1 °F 8.6 °F 73% 29.70 in 5.0 mi WNW 25.3 mph 39.1 mph N/A   Mostly Cloudy
7:55 PM 14.0 °F -2.5 °F 6.8 °F 73% 29.72 in 10.0 mi WNW 17.3 mph 21.9 mph N/A Snow Light Snow
8:15 PM 14.0 °F -0.8 °F 5.0 °F 67% 29.73 in 10.0 mi WNW 13.8 mph 23.0 mph N/A   Mostly Cloudy
8:35 PM 14.0 °F -3.4 °F 8.6 °F 79% 29.73 in 5.0 mi WNW 19.6 mph 32.2 mph N/A Snow Light Snow
8:56 PM 14.0 °F -2.5 °F 5.0 °F 67% 29.74 in 7.0 mi WNW 17.3 mph 28.8 mph N/A   Scattered Clouds
9:15 PM 14.0 °F -2.5 °F 5.0 °F 67% 29.75 in 10.0 mi WNW 17.3 mph 25.3 mph N/A   Scattered Clouds
9:35 PM 12.2 °F -4.8 °F 5.0 °F 73% 29.76 in 10.0 mi WNW 17.3 mph 26.5 mph N/A   Scattered Clouds
9:56 PM 12.2 °F -4.8 °F 5.0 °F 73% 29.77 in 10.0 mi WNW 17.3 mph 24.2 mph N/A Snow Light Snow
10:15 PM 12.2 °F -3.7 °F 5.0 °F 73% 29.78 in 10.0 mi WNW 15.0 mph 26.5 mph N/A   Scattered Clouds
10:55 PM 10.4 °F -6.6 °F 3.2 °F 73% 29.79 in 10.0 mi WNW 16.1 mph 26.5 mph N/A   Clear
11:15 PM 10.4 °F -7.2 °F 3.2 °F 73% 29.80 in 10.0 mi WNW 17.3 mph 23.0 mph N/A   Clear
11:36 PM 10.4 °F -7.2 °F 3.2 °F 73% 29.80 in 10.0 mi WNW 17.3 mph 23.0 mph N/A   Clear
11:55 PM 10.4 °F -4.8 °F 3.2 °F 73% 29.81 in 10.0 mi WNW 12.7 mph 23.0 mph N/A   Clear